Flag for Canada Weather past 2 weeks in Kuujjuaq, Quebec, Canada

50 °F

Passing clouds.

Feels Like: 46 °F
Forecast: 41 / 51 °F
Wind: 10 mph from West

Location: Kuujjuaq

Current Time: Oct 4, 2015 at 12:12:07 AM

Latest Report: Oct 3, 2015 at 11:00 PM

Visibility: 15 mi

Pressure: 30.52 "Hg

Humidity: 58%

Dew point: 36 °F

Location of KuujjuaqLocation

Historic Weather in Kuujjuaq — Graph


Kuujjuaq temperature yesterday

Maximum temperature yesterday: 59 °F (at 3:00 PM)
Minimum temperature yesterday: 41 °F (at 3:00 AM)
Average temperature yesterday: 50 °F

Past Weeks' High & Low Weather Summary

High68 °F (Sep 22, 12:00 PM)100% (Sep 18, 11:00 PM)30.74 "Hg (Sep 18, 11:00 PM)
Low30 °F (Sep 26, 5:00 AM)49% (Oct 1, 2:00 PM)29.18 "Hg (Sep 27, 7:00 PM)
Average42 °F79%29.92 "Hg
* Reported Sep 18 11:00 PM — Oct 3 11:00 PM, Kuujjuaq, Weather by CustomWeather, © 2015

Note: Actual official high and low records may vary slightly from our data, if they occured in-between our weather recording intervals... More about our weather records


Kuujjuaq weather history for previous 24 hours

Time TempWeatherWind HumidityBarometerVisibility
11:00 PM
Sat, Oct 3
50 °FPassing clouds.10 mph58%30.52 "Hg15 mi
10:00 PM52 °FPassing clouds.10 mph58%30.53 "Hg15 mi
9:00 PM50 °FOvercast.6 mph58%30.55 "Hg15 mi
8:00 PM52 °FPassing clouds.6 mph58%30.55 "Hg15 mi
7:00 PM54 °FScattered clouds.6 mph54%30.56 "Hg15 mi
6:00 PM55 °FPartly sunny.8 mph55%30.56 "Hg15 mi
5:00 PM59 °FBroken clouds.8 mph51%30.55 "Hg15 mi
4:00 PM59 °FPartly sunny.5 mph55%30.56 "Hg15 mi
3:00 PM59 °FPartly sunny.9 mph51%30.56 "Hg15 mi
2:00 PM57 °FPartly sunny.9 mph55%30.56 "Hg15 mi
1:00 PM55 °FPartly sunny.8 mph55%30.56 "Hg15 mi
12:00 PM54 °FPartly sunny.9 mph58%30.57 "Hg15 mi
11:00 AM52 °FPartly sunny.10 mph62%30.58 "Hg15 mi
10:00 AM54 °FPartly sunny.9 mph58%30.59 "Hg15 mi
9:00 AM50 °FBroken clouds.5 mph62%30.60 "Hg15 mi
8:00 AM46 °FBroken clouds.8 mph66%30.59 "Hg15 mi
7:00 AM45 °FPassing clouds.6 mph71%30.58 "Hg15 mi
6:00 AM45 °FPassing clouds.7 mph71%30.58 "Hg15 mi
5:00 AM43 °FPartly cloudy.7 mph76%30.59 "Hg15 mi
4:00 AM41 °FPartly cloudy.6 mph81%30.60 "Hg15 mi
3:00 AM41 °FPassing clouds.7 mph81%30.60 "Hg15 mi
2:00 AM43 °FPassing clouds.7 mph76%30.61 "Hg15 mi
1:00 AM43 °FPartly cloudy.6 mph76%30.61 "Hg15 mi
12:00 AM43 °FPartly cloudy.7 mph76%30.62 "Hg15 mi
Weather by CustomWeather, © 2015

See weather overviewHow to use our weather pages